STARLINK-36645

Last updated on Tue Mar 10 2026 00:02:05 GMT+0000 (Coordinated Universal Time)

1 67707U 26025Q 26068.26417933 .00456542 00000+0 28787-2 0 9998 2 67707 97.2840 179.8294 0001500 132.6423 227.4969 15.75369224 5879
UTC large
Height (km)
Speed (km/s)
/
Latitude / Longitude
Inclination (degrees)
Orbital Period (minutes)
Azimuth
Elevation
Range (km)
Doppler Factor

Next 0 passes for location: London (51.5072 / 0.1276)

Sorry there are no passes over London.